Weather History for LEAL - October, 2012

Change the Weather History Date:

Sunday, October 28, 2012

  Actual Average Record
Temperature  
Mean Temperature 57 °F -  
Max Temperature 66 °F 66 °F 80 °F (1999)
Min Temperature 48 °F 50 °F 48 °F (2010)
Degree Days  
Heating Degree Days 8    
Growing Degree Days 7 (Base 50)    
Moisture  
Dew Point 29 °F    
Average Humidity 34    
Maximum Humidity 56    
Minimum Humidity 7    
Precipitation  
Precipitation 0.00 in - - ()
Sea Level Pressure  
Sea Level Pressure 29.94 in    
Wind  
Wind Speed 9 mph ()    
Max Wind Speed 17 mph    
Max Gust Speed 31 mph    
Visibility 7.4 miles    
Events      
Averages and records for this station are not official NWS values.
T = Trace of Precipitation, MM = Missing Value Source: Averaged Metar Reports

Daily Weather History Graph

Daily Weather History Graph

Search for Another Location

Airport or City:

Trip Planner

Search our weather history database for the weather conditions in past years. The results will help you decide how hot, cold, wet, or windy it might be!

Date:

Astronomy

Oct. 28, 2012 Rise Set
Actual Time 7:24 AM CET 6:06 PM CET
Civil Twilight 6:57 AM CET 6:34 PM CET
Nautical Twilight 6:26 AM CET 7:05 PM CET
Astronomical Twilight 5:55 AM CET 7:35 PM CET
Moon 5:16 PM CET (10/28) 6:03 AM CET (10/28)
Length of Visible Light 11h 36m
Length of Day
10h 42m
Waxing Gibbous, 98% of the Moon is Illuminated
Oct 28
Waxing Gibbous
Oct 29
Full
Nov 7
Last Quarter
Nov 13
New
Nov 20
First Quarter

Hourly Weather History & Observations

Time (CET) Temp. Dew Point Humidity Pressure Visibility Wind Dir Wind Speed Gust Speed Precip Events Conditions
12:00 AM 64.4 °F 48.2 °F 56% 29.71 in 6.2 mi NW 8.1 mph - N/A   Partly Cloudy
12:30 AM 62.6 °F 46.4 °F 55% 29.74 in 6.2 mi WNW 6.9 mph - N/A   Partly Cloudy
1:00 AM 59.0 °F 42.8 °F 55% 29.77 in 6.2 mi West 3.5 mph - N/A   Partly Cloudy
1:30 AM 59.0 °F 33.8 °F 39% 29.77 in 6.2 mi WNW 12.7 mph - N/A   Partly Cloudy
2:00 AM 58 °F 30 °F 22% 29.81 in 12 mi WNW 16.1 mph - -   Scattered Clouds
2:00 AM 59.0 °F 32.0 °F 36% 29.80 in 6.2 mi WNW 15.0 mph - N/A   Partly Cloudy
2:30 AM 57.2 °F 32.0 °F 38% 29.80 in 6.2 mi NNW 4.6 mph - N/A   Partly Cloudy
2:00 AM 55.4 °F 33.8 °F 44% 29.83 in 6.2 mi NW 10.4 mph - N/A   Partly Cloudy
2:30 AM 55.4 °F 32.0 °F 41% 29.83 in 6.2 mi NNW 17.3 mph 31.1 mph N/A   Partly Cloudy
3:00 AM 53.6 °F 32.0 °F 44% 29.86 in 6.2 mi NNW 11.5 mph - N/A   Partly Cloudy
3:30 AM 53.6 °F 30.2 °F 41% 29.86 in 6.2 mi NW 11.5 mph - N/A   Partly Cloudy
4:00 AM 51.8 °F 30.2 °F 44% 29.86 in 6.2 mi WNW 5.8 mph - N/A   Partly Cloudy
4:30 AM 51.8 °F 28.4 °F 41% 29.86 in 6.2 mi NW 10.4 mph - N/A   Partly Cloudy
5:00 AM 51.8 °F 24.8 °F 35% 29.89 in 6.2 mi NW 15.0 mph 26.5 mph N/A   Partly Cloudy
5:30 AM 51.8 °F 26.6 °F 38% 29.89 in 6.2 mi NW 12.7 mph - N/A   Partly Cloudy
6:00 AM 48.2 °F 26.6 °F 43% 29.92 in 6.2 mi West 9.2 mph - N/A   Partly Cloudy
6:30 AM 50.0 °F 26.6 °F 40% 29.92 in 6.2 mi WNW 9.2 mph - N/A   Partly Cloudy
7:00 AM 49 °F 21 °F 21% 29.95 in 19 mi WNW 8.1 mph - -   Scattered Clouds
7:00 AM 50.0 °F 23.0 °F 35% 29.92 in 6.2 mi WNW 6.9 mph - N/A   Partly Cloudy
7:30 AM 50.0 °F 23.0 °F 35% 29.95 in 6.2 mi NW 16.1 mph 27.6 mph N/A   Partly Cloudy
8:00 AM 48.2 °F 24.8 °F 40% 29.98 in 6.2 mi West 10.4 mph - N/A   Partly Cloudy
8:30 AM 51.8 °F 23.0 °F 33% 29.98 in 6.2 mi West 4.6 mph - N/A   Partly Cloudy
9:00 AM 53.6 °F 21.2 °F 28% 29.98 in 6.2 mi West 5.8 mph - N/A   Partly Cloudy
9:30 AM 55.4 °F 19.4 °F 25% 30.01 in 6.2 mi NW 12.7 mph - N/A   Partly Cloudy
10:30 AM 59.0 °F 21.2 °F 23% 30.01 in 6.2 mi NW 11.5 mph - N/A   Partly Cloudy
11:00 AM 59.0 °F 21.2 °F 23% 30.01 in 6.2 mi WNW 6.9 mph - N/A   Partly Cloudy
11:30 AM 62.6 °F 21.2 °F 20% 30.01 in - NNW 6.9 mph - N/A   Clear
12:00 PM 62.6 °F 23.0 °F 22% 30.01 in - WNW 9.2 mph - N/A   Clear
12:30 PM 62.6 °F 23.0 °F 22% 30.01 in - WNW 8.1 mph - N/A   Clear
1:00 PM 64 °F 15 °F 7% 30.01 in 31 mi NW 8.1 mph - -  
1:00 PM 64.4 °F 17.6 °F 16% 30.01 in - NW 8.1 mph - N/A   Clear
1:30 PM 64.4 °F 17.6 °F 16% 29.98 in - North 6.9 mph - N/A   Clear
2:00 PM 66.2 °F 19.4 °F 17% 29.98 in - NNW 6.9 mph - N/A   Clear
2:30 PM 64.4 °F 26.6 °F 24% 29.98 in - WNW 9.2 mph - N/A   Clear
3:00 PM 64.4 °F 26.6 °F 24% 29.98 in - West 12.7 mph - N/A   Clear
3:30 PM 64.4 °F 28.4 °F 26% 29.98 in - West 12.7 mph - N/A   Clear
4:30 PM 64.4 °F 28.4 °F 26% 29.98 in - WNW 13.8 mph - N/A   Clear
5:00 PM 64.4 °F 28.4 °F 26% 29.98 in - WNW 12.7 mph - N/A   Clear
5:30 PM 62.6 °F 28.4 °F 27% 29.98 in - West 11.5 mph - N/A   Clear
6:00 PM 60.8 °F 30.2 °F 31% 29.98 in - West 8.1 mph - N/A   Clear
6:30 PM 57.2 °F 33.8 °F 41% 30.01 in - West 6.9 mph - N/A   Clear
7:00 PM 57 °F 31 °F 26% 30.02 in 19 mi WNW 8.1 mph - -  
7:00 PM 57.2 °F 33.8 °F 41% 30.01 in - WNW 6.9 mph - N/A   Clear
7:30 PM 57.2 °F 33.8 °F 41% 30.01 in - WNW 9.2 mph - N/A   Clear
8:00 PM 57.2 °F 33.8 °F 41% 30.01 in - WNW 9.2 mph - N/A   Clear
8:30 PM 55.4 °F 35.6 °F 47% 30.01 in - West 9.2 mph - N/A   Clear
9:00 PM 57.2 °F 33.8 °F 41% 30.04 in - WNW 12.7 mph - N/A   Clear
9:30 PM 55.4 °F 35.6 °F 47% 30.04 in - West 8.1 mph - N/A   Clear
10:00 PM 55.4 °F 35.6 °F 47% 30.04 in - West 10.4 mph - N/A   Clear
10:30 PM 53.6 °F 35.6 °F 51% 30.04 in - West 10.4 mph - N/A   Clear